Regional Weather Roundup
Issued by NWS

Home | Current Version | Previous Version | Text Only | Print | Product List | Glossary On
Versions: 1 2 3 4 5 6 7 8 9 10 11 12 13 14 15 16 17 18 19 20 21 22 23 24 25 26 27 28 29 30 31 32 33 34 35 36 37 38 39 40 41 42 43 44 45 46 47
000
ASUS45 KPSR 271210
RWRAZ

ARIZONA HOURLY REGIONAL WEATHER ROUNDUP
NATIONAL WEATHER SERVICE PHOENIX AZ
500 AM MST SAT MAY 27 2017

NOTE: FAIR INDICATES FEW OR NO CLOUDS BELOW 12,000 FEET WITH NO
SIGNIFICANT WEATHER AND/OR OBSTRUCTIONS TO VISIBILITY.

AZZ001>003-036-271300-
NORTHWEST ARIZONA

CITY           SKY/WX    TMP DP  RH WIND       PRES   REMARKS
BULLHEAD CITY  CLEAR     73  34  23 CALM      29.84R
KINGMAN        CLEAR     56  26  31 SE14      29.97R
6HR MIN TEMP:  51; 6HR MAX TEMP:  67;

$$

AZZ004>008-015-016-018-271300-
NORTH CENTRAL ARIZONA

CITY           SKY/WX    TMP DP  RH WIND       PRES   REMARKS
GRAND CANYON   CLEAR     32  24  72 CALM      30.15R
6HR MIN TEMP:  30; 6HR MAX TEMP:  49;

WILLIAMS       CLEAR     39  27  60 S7        30.14S WCI  34
PRESCOTT       CLEAR     49  33  54 S8        30.07R
6HR MIN TEMP:  48; 6HR MAX TEMP:  59;

FLAGSTAFF      CLEAR     37  24  59 CALM      30.16R
6HR MIN TEMP:  36; 6HR MAX TEMP:  45;

PAYSON         CLEAR     50  21  32 CALM      30.11S
PAGE           CLEAR     63  32  31 W6        30.01R
6HR MIN TEMP:  63; 6HR MAX TEMP:  73;

$$

AZZ009>014-017-271300-
NORTHEAST ARIZONA

CITY           SKY/WX    TMP DP  RH WIND       PRES   REMARKS
WINSLOW        CLEAR     49  22  34 CALM      30.07R
6HR MIN TEMP:  46; 6HR MAX TEMP:  57;

SAINT JOHNS    CLEAR     44  20  38 CALM      30.10S
6HR MIN TEMP:  41; 6HR MAX TEMP:  57;

WINDOW ROCK    CLEAR     43  18  36 N5        30.14R
6HR MIN TEMP:  43; 6HR MAX TEMP:  52;

SHOW LOW       CLEAR     46  19  34 S14       30.14F
$$

AZZ540-542>544-546-548-271300-
GREATER PHOENIX AREA

CITY           SKY/WX    TMP DP  RH WIND       PRES   REMARKS
PHOENIX        PTCLDY    71  27  19 S3        29.89R
6HR MIN TEMP:  71; 6HR MAX TEMP:  83;

BUCKEYE        PTCLDY    63  25  23 N7        29.90R
LUKE AFB       CLEAR     64  36  35 CALM      29.89R
6HR MIN TEMP:  64; 6HR MAX TEMP:  79;

DEER VALLEY    CLEAR     71  26  18 E5        29.91R
6HR MIN TEMP:  70; 6HR MAX TEMP:  79;

SCOTTSDALE     CLEAR     70  26  19 SE3       29.92R
6HR MIN TEMP:  70; 6HR MAX TEMP:  81;

MESA-GATEWAY   CLEAR     63  27  25 E5        29.92R
$$

AZZ539-553-271300-
SOUTHWEST MARICOPA COUNTY AND PINAL COUNTY

CITY           SKY/WX    TMP DP  RH WIND       PRES   REMARKS
CASA GRANDE    CLEAR     60  21  22 E5        29.92S
6HR MIN TEMP:  60; 6HR MAX TEMP:  75;

GILA BEND      FAIR      61  16  17 E6        29.88R
6HR MIN TEMP:  61; 6HR MAX TEMP:  75;

$$

AZZ503-504-507>509-271300-
SOUTHEAST ARIZONA

CITY           SKY/WX    TMP DP  RH WIND       PRES   REMARKS
TUCSON         CLEAR     63  32  31 W3        29.99S
6HR MIN TEMP:  63; 6HR MAX TEMP:  76;

DAVIS-MONTHAN  CLEAR     62  30  30 SE5       29.98S
6HR MIN TEMP:  60; 6HR MAX TEMP:  73;

NOGALES        CLEAR     54  28  36 CALM      30.04S
6HR MIN TEMP:  54; 6HR MAX TEMP:  70;

SIERRA VISTA   CLEAR     59  24  25 S5        30.09R
6HR MIN TEMP:  59; 6HR MAX TEMP:  71;

DOUGLAS        CLEAR     54  28  36 NE5       30.06S
6HR MIN TEMP:  53; 6HR MAX TEMP:  68;

SAFFORD        CLEAR     56  17  21 E3        29.98R
6HR MIN TEMP:  55; 6HR MAX TEMP:  76;

$$

AZZ532-271300-
SOUTHWEST ARIZONA

CITY           SKY/WX    TMP DP  RH WIND       PRES   REMARKS
YUMA           CLEAR     66  50  56 SE5       29.85R
6HR MIN TEMP:  66; 6HR MAX TEMP:  75;

$$

CAZ041-043-047-048-061-525>527-560>570-271300-
SOUTHERN CALIFORNIA

CITY           SKY/WX    TMP DP  RH WIND       PRES   REMARKS
DOWNTOWN L.A.  CLOUDY    60  53  77 CALM      30.00F
6HR MIN TEMP:  58; 6HR MAX TEMP:  62;

L.A. AIRPORT   CLOUDY    59  51  75 W9        30.01S
6HR MIN TEMP:  58; 6HR MAX TEMP:  60;

SAN DIEGO      MOCLDY    63  55  75 N5        30.02R
6HR MIN TEMP:  63; 6HR MAX TEMP:  64;

BURBANK        PTCLDY    54  47  77 CALM      30.00F
6HR MIN TEMP:  54; 6HR MAX TEMP:  61;

ONTARIO        CLOUDY    57  48  72 W6        30.00S
6HR MIN TEMP:  56; 6HR MAX TEMP:  60;

RIVERSIDE      CLEAR     57  49  74 W3        30.00S
6HR MIN TEMP:  57; 6HR MAX TEMP:  60;

PALM SPRINGS   CLEAR     64  48  56 SE5       29.86S
6HR MIN TEMP:  64; 6HR MAX TEMP:  74;

EL CENTRO NAS  CLEAR     60  45  57 S3        29.85R
6HR MIN TEMP:  60; 6HR MAX TEMP:  74;

IMPERIAL       CLEAR     65  45  48 CALM      29.83R
6HR MIN TEMP:  64; 6HR MAX TEMP:  73; 6HR PCP: TRACE;

BLYTHE         CLEAR     72  47  40 S10       29.84R
6HR MIN TEMP:  68; 6HR MAX TEMP:  83;

NEEDLES        CLEAR     76  38  25 CALM      29.85R
6HR MIN TEMP:  75; 6HR MAX TEMP:  86;

$$

NVZ020-UTZ003-271300-
SOUTHERN NEVADA-UTAH

CITY           SKY/WX    TMP DP  RH WIND       PRES   REMARKS
LAS VEGAS      CLEAR     71  26  18 S3        29.89R
6HR MIN TEMP:  71; 6HR MAX TEMP:  81;

SALT LAKE CITY PTCLDY    46  37  71 SE7       30.14R
$$

NMZ009-TXZ055-271300-
NEW MEXICO-WEST TEXAS

CITY           SKY/WX    TMP DP  RH WIND       PRES   REMARKS
ALBUQUERQUE    CLOUDY    52  11  19 S5        30.08R
6HR MIN TEMP:  51; 6HR MAX TEMP:  68;

EL PASO        CLEAR     76  27  16 W10       30.02R
6HR MIN TEMP:  72; 6HR MAX TEMP:  83;

$$


........................KEY........................
SKY/WX - SKY CONDITION/WEATHER
TMP    - TEMPERATURE IN FAHRENHEIT
DP     - DEW POINT IN FAHRENHEIT
RH     - RELATIVE HUMIDITY IN PERCENT
WIND   - DIRECTION AND SPEED IN MILES PER HOUR (MPH)
VRB    - VARIABLE WIND DIRECTION
PRES   - MEAN SEA LEVEL PRESSURE IN INCHES OF MERCURY
         F - FALLING PRESSURE   R - RISING PRESSURE
         S - STEADY PRESSURE
VSB    - VISIBILITY IN MILES
HX     - HEAT INDEX IN FAHRENHEIT
WCI    - WIND CHILL INDEX IN FAHRENHEIT
TC     - TEMPERATURE IN CELSIUS WHICH IS ALSO KNOWN AS
         TEMPERATURE IN CENTIGRADE
AFB    - AIR FORCE BASE
         LUKE AFB IS LUKE AIR FORCE BASE
         DAVIS-MONTHAN IS DAVIS-MONTHAN AIR FORCE BASE
NAS    - NAVAL AIR STATION
         EL CENTRO NAS IS EL CENTRO NAVAL AIR STATION
N/A    - NOT AVAILABLE





USA.gov is the U.S. government's official web portal to all federal, state and local government web resources and services.